Regional Weather Roundup
Issued by NWS

Home | Current Version | Previous Version | Text Only | Print | Product List | Glossary On
Versions: 1 2 3 4 5 6 7 8 9 10 11 12 13 14 15 16 17 18 19 20 21 22 23 24 25 26 27 28 29 30 31 32 33 34 35 36 37 38 39 40 41 42 43 44 45 46 47 48 49 50
000
ASUS42 KFFC 271703
RWRGA
WEATHER ROUNDUP FOR GEORGIA
NATIONAL WEATHER SERVICE PEACHTREE CITY GA
1200 PM EST MON FEB 27 2017

NOTE: "FAIR" INDICATES FEW OR NO CLOUDS BELOW 12,000 FEET WITH NO
SIGNIFICANT WEATHER AND/OR OBSTRUCTIONS TO VISIBILITY.

* = USE WITH CAUTION. THE STATIONS MARKED WITH AN ASTERISK MAY NOT
REPORT WEATHER SUCH AS PRECIPITATION, FOG, OR THUNDER AND ARE NOT
QUALITY CONTROLLED BY NWS.

THE REMARK "TC" DENOTES TEMPERATURE READING IN DEGREES CELSIUS.

GAZ001>058-271800-
NORTH GEORGIA

CITY           SKY/WX    TMP DP  RH WIND       PRES   REMARKS
ATLANTA        LGT RAIN  55  33  43 N9        30.34R
ATHENS         CLOUDY    56  36  47 NE6       30.36R
CHAMBLEE       CLOUDY    55  29  36 N7        30.36R
PEACHTREE CITY CLOUDY    58  38  47 NW8       30.34R
ROME           LGT RAIN  46  41  82 SE5       30.35F
WEST ATLANTA   CLOUDY    56  30  37 N5        30.36R
GAINESVILLE    CLOUDY    52  29  41 E10       30.36S
CARTERSVILLE   CLOUDY    53  30  41 CALM      30.39R


CITY           SKY/WX    TMP DP  RH WIND       PRES   REMARKS
DALTON*        LGT RAIN  43  37  81 E5        30.35F
LAWRENCEVILLE* SUNNY     52  30  43 E9        30.35R
MARIETTA       CLOUDY    55  29  36 N6        30.34R
KENNESAW*      PTSUNNY   54  28  37 CALM      30.38R
CANTON*        CLOUDY    52  18  25 CALM      30.38F
$$

GAZ059>098-102>109-271800-
CENTRAL GEORGIA

CITY           SKY/WX    TMP DP  RH WIND       PRES   REMARKS
AUGUSTA-BUSH   SUNNY     69  44  40 SE9       30.34S
AUGUSTA-DANIEL SUNNY     66  39  37 E10       30.36R
COLUMBUS       MOSUNNY   66  49  54 S9        30.24F
MACON          MOSUNNY   66  48  52 SE14      30.30S
ROBINS AFB     PTSUNNY   68  50  51 S13G22    30.29R


CITY           SKY/WX    TMP DP  RH WIND       PRES   REMARKS
LAGRANGE*      CLOUDY    63  50  63 W3        30.31R
SYLVANIA*      MOSUNNY  N/A N/A N/A SE6       30.34F
MILLEDGEVILLE* MOSUNNY   63  46  55 CALM      30.32F
$$

GAZ099>101-110>166-271800-
SOUTH GEORGIA

CITY           SKY/WX    TMP DP  RH WIND       PRES   REMARKS
SAVANNAH       PTSUNNY   73  52  47 SE16G24   30.34S
VALDOSTA       SUNNY     75  56  51 S14       30.26F
ALMA           SUNNY     74  54  49 SE13G24   30.29F
ST SIMONS      SUNNY     72  58  61 SE13      30.31F
FT STEWART     PTSUNNY   73  55  53 SE12G17   30.29F
ALBANY         MOSUNNY   72  50  45 S17       30.27F
HUNTER AFB     MOSUNNY   72  58  62 SE8G18    30.31F
MOODY AFB      MOSUNNY   77  54  44 SE13G22   30.25F
BRUNSWICK      MOSUNNY   73  61  64 SE17G23   30.33S


CITY           SKY/WX    TMP DP  RH WIND       PRES   REMARKS
BAINBRIDGE*    MOSUNNY   73  54  49 S10       30.25S
MOULTRIE*      MOSUNNY   73  54  49 S10G16    30.26F
VIDALIA*       MOSUNNY   72  57  60 SE12      30.30F
WAYCROSS*      SUNNY     78  58  51 S13G24    30.28F
DOUGLAS*       SUNNY     72  52  49 SE9       30.30S
$$



USA.gov is the U.S. government's official web portal to all federal, state and local government web resources and services.